| time (UTC) | temp C | wind direction | speed KPH | gust KPH | rain 1hr cm | rain 24hr cm | rain mn cm | humidity % | barometer mb |
| 20260506050103 | 15 | 212 | 3.2 | 11.3 | 0.00 | 0.51 | 0.51 | 51 | 1015.4 |
| 20260506044703 | 15 | 304 | 1.6 | 6.4 | 0.00 | 0.51 | 0.51 | 51 | 1015.4 |
| 20260506043110 | 15 | 0 | 4.8 | 9.7 | 0.00 | 0.51 | 0.51 | 49 | 1015.0 |
| 20260506041603 | 16 | 190 | 3.2 | 11.3 | 0.00 | 0.51 | 0.51 | 47 | 1014.7 |
| 20260506040112 | 16 | 242 | 1.6 | 8.0 | 0.00 | 0.51 | 0.51 | 47 | 1014.4 |
| 20260506034628 | 16 | 242 | 3.2 | 11.3 | 0.00 | 0.51 | 0.51 | 45 | 1014.3 |
| 20260506033104 | 16 | 228 | 4.8 | 11.3 | 0.00 | 0.51 | 0.51 | 44 | 1014.0 |
| 20260506031607 | 17 | 241 | 1.6 | 11.3 | 0.00 | 0.51 | 0.51 | 43 | 1013.8 |
| 20260506030104 | 17 | 230 | 4.8 | 16.1 | 0.00 | 0.51 | 0.51 | 41 | 1013.6 |
| 20260506024600 | 17 | 257 | 8.0 | 17.7 | 0.00 | 0.51 | 0.51 | 40 | 1013.3 |
| 20260506023113 | 18 | 238 | 6.4 | 24.1 | 0.00 | 0.51 | 0.51 | 39 | 1013.0 |
| 20260506021600 | 18 | 225 | 6.4 | 17.7 | 0.00 | 0.51 | 0.51 | 38 | 1012.6 |
| 20260506020059 | 18 | 237 | 12.9 | 24.1 | 0.00 | 0.51 | 0.51 | 38 | 1012.3 |
| 20260506014600 | 19 | 230 | 14.5 | 25.7 | 0.00 | 0.51 | 0.51 | 37 | 1012.1 |
| 20260506013100 | 20 | 233 | 16.1 | 37.0 | 0.00 | 0.51 | 0.51 | 36 | 1012.1 |
| 20260506011625 | 20 | 232 | 14.5 | 32.2 | 0.00 | 0.51 | 0.51 | 34 | 1011.9 |
| 20260506010103 | 20 | 223 | 16.1 | 37.0 | 0.00 | 0.51 | 0.51 | 32 | 1011.8 |
| 20260506004626 | 21 | 259 | 17.7 | 35.4 | 0.00 | 0.51 | 0.51 | 31 | 1011.6 |
| 20260506003112 | 21 | 255 | 16.1 | 41.8 | 0.00 | 0.51 | 0.51 | 29 | 1011.5 |
| 20260506001600 | 21 | 257 | 19.3 | 43.5 | 0.00 | 0.51 | 0.51 | 27 | 1011.5 |
| 20260506000058 | 22 | 243 | 20.9 | 37.0 | 0.00 | 0.51 | 0.51 | 25 | 1011.3 |
| 20260505234637 | 22 | 225 | 22.5 | 45.1 | 0.00 | 0.51 | 0.51 | 24 | 1011.1 |
| 20260505233114 | 22 | 223 | 22.5 | 40.2 | 0.00 | 0.51 | 0.51 | 25 | 1011.1 |
| 20260505231601 | 22 | 272 | 20.9 | 43.5 | 0.00 | 0.51 | 0.51 | 28 | 1011.1 |
| 20260505230100 | 23 | 277 | 16.1 | 37.0 | 0.00 | 0.51 | 0.51 | 30 | 1011.0 |
| 20260505224600 | 23 | 207 | 16.1 | 38.6 | 0.00 | 0.51 | 0.51 | 31 | 1011.1 |
| 20260505223059 | 23 | 258 | 20.9 | 43.5 | 0.00 | 0.51 | 0.51 | 30 | 1011.4 |
| 20260505221601 | 23 | 234 | 12.9 | 43.5 | 0.00 | 0.51 | 0.51 | 31 | 1011.5 |
| 20260505220107 | 23 | 227 | 20.9 | 45.1 | 0.00 | 0.51 | 0.51 | 28 | 1011.5 |
| 20260505214608 | 23 | 201 | 14.5 | 37.0 | 0.00 | 0.51 | 0.51 | 32 | 1011.5 |
| 20260505213105 | 23 | 229 | 24.1 | 51.5 | 0.00 | 0.51 | 0.51 | 31 | 1011.8 |
| 20260505211604 | 23 | 212 | 24.1 | 46.7 | 0.00 | 0.51 | 0.51 | 32 | 1012.0 |
| 20260505210103 | 23 | 233 | 22.5 | 46.7 | 0.00 | 0.51 | 0.51 | 32 | 1012.1 |
| 20260505204603 | 22 | 268 | 24.1 | 45.1 | 0.00 | 0.51 | 0.51 | 35 | 1012.2 |
| 20260505203107 | 23 | 227 | 19.3 | 38.6 | 0.00 | 0.51 | 0.51 | 36 | 1012.3 |
| 20260505201605 | 22 | 254 | 19.3 | 43.5 | 0.00 | 0.51 | 0.51 | 37 | 1012.2 |
| 20260505200108 | 22 | 254 | 19.3 | 46.7 | 0.00 | 0.51 | 0.51 | 39 | 1012.4 |
| 20260505194558 | 22 | 248 | 22.5 | 43.5 | 0.00 | 0.51 | 0.51 | 40 | 1012.5 |
| 20260505193100 | 22 | 246 | 22.5 | 53.1 | 0.00 | 0.51 | 0.51 | 38 | 1012.5 |
| 20260505191602 | 21 | 252 | 22.5 | 41.8 | 0.00 | 0.51 | 0.51 | 41 | 1012.6 |
| 20260505190059 | 21 | 231 | 17.7 | 38.6 | 0.00 | 0.51 | 0.51 | 45 | 1013.1 |
| 20260505184606 | 21 | 232 | 19.3 | 38.6 | 0.00 | 0.51 | 0.51 | 45 | 1013.2 |
| 20260505183100 | 20 | 240 | 14.5 | 27.4 | 0.00 | 0.51 | 0.51 | 49 | 1013.3 |
| 20260505181600 | 20 | 234 | 6.4 | 24.1 | 0.00 | 0.51 | 0.51 | 59 | 1013.6 |
| 20260505180105 | 20 | 280 | 14.5 | 24.1 | 0.00 | 0.51 | 0.51 | 54 | 1013.6 |
| 20260505174613 | 20 | 281 | 8.0 | 22.5 | 0.00 | 0.51 | 0.51 | 56 | 1013.7 |
| 20260505173100 | 20 | 288 | 8.0 | 22.5 | 0.00 | 0.51 | 0.51 | 57 | 1013.7 |
| 20260505171603 | 19 | 299 | 8.0 | 17.7 | 0.00 | 0.51 | 0.51 | 62 | 1013.8 |
| 20260505170138 | 19 | 209 | 1.6 | 14.5 | 0.00 | 0.51 | 0.51 | 61 | 1013.7 |
| 20260505164608 | 17 | 231 | 1.6 | 12.9 | 0.00 | 0.51 | 0.51 | 67 | 1014.0 |
| 20260505163057 | 17 | 302 | 3.2 | 14.5 | 0.00 | 0.51 | 0.51 | 68 | 1014.0 |
| 20260505161604 | 17 | 234 | 4.8 | 12.9 | 0.00 | 0.51 | 0.51 | 67 | 1014.1 |
| 20260505153101 | 15 | 254 | 1.6 | 4.8 | 0.00 | 0.51 | 0.51 | 76 | 1014.1 |
| 20260505151559 | 15 | 0 | 0.0 | 1.6 | 0.00 | 0.51 | 0.51 | 82 | 1013.9 |
| 20260505124601 | 13 | 0 | 0.0 | 4.8 | 0.00 | 0.51 | 0.51 | 91 | 1012.5 |
| 20260505123115 | 13 | 0 | 0.0 | 4.8 | 0.03 | 0.51 | 0.51 | 91 | 1012.6 |
| 20260505121559 | 13 | 0 | 1.6 | 11.3 | 0.03 | 0.51 | 0.51 | 90 | 1012.4 |
| 20260505120058 | 13 | 331 | 0.0 | 1.6 | 0.03 | 0.51 | 0.51 | 90 | 1012.5 |
| 20260505114615 | 13 | 0 | 0.0 | 0.0 | 0.03 | 0.51 | 0.51 | 89 | 1012.1 |
| 20260505113105 | 13 | 0 | 0.0 | 3.2 | 0.00 | 0.48 | 0.48 | 87 | 1012.0 |
| 20260505111611 | 13 | 0 | 0.0 | 3.2 | 0.03 | 0.48 | 0.48 | 87 | 1012.3 |
| 20260505101602 | 13 | 0 | 1.6 | 6.4 | 0.05 | 0.46 | 0.46 | 88 | 1012.9 |
| 20260505100101 | 13 | 0 | 1.6 | 8.0 | 0.08 | 0.46 | 0.46 | 88 | 1013.5 |
| 20260505094557 | 13 | 0 | 0.0 | 4.8 | 0.10 | 0.46 | 0.46 | 88 | 1013.7 |
| 20260505093100 | 13 | 0 | 1.6 | 9.7 | 0.13 | 0.43 | 0.43 | 88 | 1014.0 |
| 20260505091600 | 13 | 163 | 6.4 | 14.5 | 0.20 | 0.41 | 0.41 | 87 | 1014.7 |
| 20260505090100 | 13 | 174 | 6.4 | 12.9 | 0.28 | 0.38 | 0.38 | 88 | 1015.0 |
| 20260505084600 | 13 | 170 | 4.8 | 9.7 | 0.30 | 0.36 | 0.36 | 89 | 1015.7 |
| 20260505083117 | 13 | 156 | 3.2 | 12.9 | 0.28 | 0.30 | 0.30 | 89 | 1015.9 |
| 20260505081600 | 13 | 217 | 4.8 | 11.3 | 0.20 | 0.20 | 0.20 | 88 | 1016.2 |
| 20260505080058 | 13 | 240 | 0.0 | 6.4 | 0.10 | 0.10 | 0.10 | 87 | 1016.2 |
| 20260505074600 | 13 | 240 | 3.2 | 8.0 | 0.05 | 0.05 | 0.05 | 86 | 1016.5 |
| 20260505073107 | 14 | 225 | 3.2 | 14.5 | 0.03 | 0.03 | 0.03 | 82 | 1016.5 |
| 20260505071604 | 14 | 226 | 4.8 | 14.5 | 0.00 | 0.00 | 0.00 | 80 | 1016.4 |
| 20260505070100 | 15 | 200 | 6.4 | 16.1 | 0.00 | 0.00 | 0.00 | 76 | 1016.3 |
| 20260505064604 | 15 | 228 | 9.7 | 19.3 | 0.00 | 0.00 | 0.00 | 71 | 1016.2 |
| 20260505063058 | 15 | 229 | 6.4 | 19.3 | 0.00 | 0.00 | 0.00 | 71 | 1016.1 |
| 20260505061602 | 15 | 240 | 3.2 | 8.0 | 0.00 | 0.00 | 0.00 | 70 | 1016.2 |